Location: Brede
(50.9167°N, 0.6000°E)
Time: 21:00:15
(UTC+00:00)

Cosmos 1607 - Visible Passes

Search period start: 04 December 2020 00:00
Search period end: 14 December 2020 00:00
Orbit: 908 x 994 km, 65.0° (Epoch: 03 December)

Date Brightness Start Highest point End Pass type
(mag) Time Alt. Az. Time Alt. Az. Time Alt. Az.
04 Dec 5.4 17:09:10 10° WNW 17:14:18 24° N 17:18:51 12° NE visible
04 Dec 5.3 18:58:08 10° NW 19:02:58 27° N 19:02:58 27° N visible
04 Dec 6.3 20:45:40 10° NW 20:47:05 17° NW 20:47:05 17° NW visible
05 Dec 5.4 17:28:03 10° NW 17:33:07 23° N 17:36:31 16° NE visible
05 Dec 5.3 19:16:28 10° NW 19:20:38 29° N 19:20:38 29° N visible
05 Dec 6.5 21:03:50 10° NW 21:04:45 15° NW 21:04:45 15° NW visible
06 Dec 5.3 17:46:45 10° NW 17:51:54 24° N 17:54:12 20° NE visible
06 Dec 5.3 19:34:41 10° NW 19:38:20 30° NNW 19:38:20 30° NNW visible
06 Dec 6.7 21:22:04 10° NW 21:22:27 12° NW 21:22:27 12° NW visible
07 Dec 5.1 18:05:17 10° NW 18:10:40 27° NNE 18:11:55 25° NE visible
07 Dec 5.5 19:52:52 10° NW 19:56:03 30° NNW 19:56:03 30° NNW visible
08 Dec 5.4 16:35:03 10° NW 16:40:07 23° N 16:45:12 10° NE visible
08 Dec 4.9 18:23:39 10° NW 18:29:22 31° NNE 18:29:41 31° NNE visible
08 Dec 5.7 20:11:02 10° NW 20:13:49 27° NW 20:13:49 27° NW visible
09 Dec 5.3 16:53:48 10° NW 16:58:55 24° N 17:03:21 12° NE visible
09 Dec 4.7 18:41:53 10° NW 18:47:29 39° NNE 18:47:29 39° NNE visible
09 Dec 5.9 20:29:13 10° NW 20:31:37 24° NW 20:31:37 24° NW visible
10 Dec 5.2 17:12:23 10° NW 17:17:42 26° NNE 17:21:11 17° NE visible
10 Dec 4.5 19:00:04 10° NW 19:05:19 47° N 19:05:19 47° N visible
10 Dec 6.2 20:47:32 10° NW 20:49:27 20° NW 20:49:27 20° NW visible
11 Dec 5.0 17:30:47 10° NW 17:36:24 30° NNE 17:39:05 22° ENE visible
11 Dec 4.5 19:18:14 10° NW 19:23:14 53° NNW 19:23:14 53° NNW visible
11 Dec 6.4 21:06:01 10° NW 21:07:22 16° WNW 21:07:22 16° WNW visible
12 Dec 4.7 17:49:04 10° NW 17:55:01 36° NNE 17:57:04 30° ENE visible
12 Dec 4.6 19:36:25 10° NW 19:41:13 52° NW 19:41:13 52° NW visible
12 Dec 6.7 21:24:52 10° WNW 21:25:22 12° WNW 21:25:22 12° WNW visible
13 Dec 4.3 18:07:16 10° NW 18:13:32 47° NE 18:15:09 39° ENE visible
13 Dec 5.0 19:54:41 10° NW 19:59:18 43° WNW 19:59:18 43° WNW visible
